Location: Hains Lake
(37.8540°N, 99.8578°W)
Time: 19:37:46
(UTC+00:00)

Transit 2A - Pass Details

Date: 24 April 2021
Orbit: 602 x 957 km, 66.7° (Epoch: 13 May)

Event Time Altitude Azimuth Distance (km) Brightness Sun altitude
Rises 20:58:50 0° 341° (NNW) 2,885 8.9 50.1°
Reaches altitude 10° 21:01:13 10° 351° (N) 2,002 8.2 49.7°
Maximum altitude 21:05:19 34° 57° (ENE) 1,082 6.8 48.9°
Drops below altitude 10° 21:09:40 10° 122° (ESE) 2,137 8.2 48.2°
Sets 21:12:17 0° 131° (SE) 3,111 9.0 47.7°
